| time (UTC) | temp F | wind direction | speed MPH | gust MPH | rain 1hr in | rain 24hr in | rain mn in | humidity % | barometer mb |
| 20260510174016 | 47 | 299 | 0.0 | 0.0 | 0.00 | 0.06 | 0.00 | 99 | 1031.7 |
| 20260510173012 | 47 | 306 | 0.0 | 0.0 | 0.00 | 0.06 | 0.00 | 99 | 1031.8 |
| 20260510172022 | 47 | 297 | 0.0 | 0.0 | 0.00 | 0.06 | 0.00 | 99 | 1031.8 |
| 20260510165958 | 47 | 300 | 0.0 | 0.0 | 0.00 | 0.07 | 0.00 | 99 | 1031.9 |
| 20260510165021 | 47 | 301 | 0.0 | 0.0 | 0.00 | 0.07 | 0.00 | 99 | 1031.9 |
| 20260510164043 | 47 | 301 | 0.0 | 0.0 | 0.00 | 0.07 | 0.00 | 99 | 1031.9 |
| 20260510163012 | 48 | 294 | 0.0 | 0.0 | 0.00 | 0.07 | 0.00 | 99 | 1031.9 |
| 20260510162031 | 47 | 298 | 0.0 | 0.0 | 0.00 | 0.07 | 0.00 | 99 | 1031.8 |
| 20260510161027 | 48 | 298 | 0.0 | 0.0 | 0.00 | 0.07 | 0.00 | 99 | 1031.9 |
| 20260510160046 | 47 | 298 | 0.0 | 0.0 | 0.00 | 0.07 | 0.00 | 99 | 1032.0 |
| 20260510155020 | 48 | 298 | 0.0 | 0.0 | 0.00 | 0.07 | 0.00 | 99 | 1032.0 |
| 20260510154033 | 48 | 281 | 0.0 | 0.0 | 0.00 | 0.07 | 0.00 | 99 | 1032.0 |
| 20260510153007 | 48 | 282 | 0.0 | 0.0 | 0.00 | 0.07 | 0.00 | 99 | 1032.0 |
| 20260510151951 | 48 | 281 | 0.0 | 0.0 | 0.00 | 0.07 | 0.00 | 99 | 1032.0 |
| 20260510151002 | 48 | 281 | 0.0 | 0.0 | 0.00 | 0.07 | 0.00 | 99 | 1032.0 |
| 20260510150004 | 48 | 275 | 0.0 | 0.0 | 0.00 | 0.07 | 0.00 | 99 | 1032.0 |
| 20260510145013 | 48 | 275 | 0.0 | 0.0 | 0.00 | 0.07 | 0.00 | 99 | 1032.0 |
| 20260510144008 | 48 | 271 | 0.0 | 0.0 | 0.00 | 0.07 | 0.00 | 99 | 1032.0 |
| 20260510143020 | 48 | 270 | 0.0 | 0.0 | 0.00 | 0.07 | 0.00 | 99 | 1031.9 |
| 20260510142030 | 49 | 270 | 0.0 | 0.0 | 0.00 | 0.07 | 0.00 | 99 | 1031.9 |
| 20260510141042 | 49 | 270 | 0.0 | 0.0 | 0.00 | 0.07 | 0.00 | 99 | 1032.0 |
| 20260510140011 | 49 | 270 | 0.0 | 0.0 | 0.00 | 0.07 | 0.00 | 99 | 1032.0 |
| 20260510135024 | 49 | 248 | 0.0 | 0.0 | 0.00 | 0.07 | 0.07 | 99 | 1032.0 |
| 20260510133002 | 50 | 91 | 0.0 | 0.0 | 0.00 | 0.07 | 0.07 | 99 | 1032.1 |
| 20260510130955 | 50 | 91 | 0.0 | 0.0 | 0.00 | 0.07 | 0.07 | 99 | 1032.0 |
| 20260510125924 | 50 | 91 | 0.0 | 0.0 | 0.00 | 0.07 | 0.07 | 99 | 1032.0 |
| 20260510124909 | 50 | 91 | 0.0 | 0.0 | 0.00 | 0.07 | 0.07 | 99 | 1032.2 |
| 20260510123846 | 50 | 91 | 0.0 | 0.0 | 0.00 | 0.07 | 0.07 | 99 | 1032.3 |
| 20260510122825 | 50 | 91 | 0.0 | 0.0 | 0.00 | 0.07 | 0.07 | 99 | 1032.3 |
| 20260510121823 | 50 | 91 | 0.0 | 0.0 | 0.00 | 0.07 | 0.07 | 99 | 1032.3 |
| 20260510120756 | 50 | 91 | 0.0 | 0.0 | 0.00 | 0.07 | 0.07 | 99 | 1032.4 |
| 20260510115731 | 50 | 91 | 0.0 | 0.0 | 0.00 | 0.07 | 0.07 | 99 | 1032.3 |
| 20260510114719 | 50 | 91 | 0.0 | 0.0 | 0.00 | 0.07 | 0.07 | 99 | 1032.2 |
| 20260510112710 | 50 | 91 | 0.0 | 0.0 | 0.00 | 0.07 | 0.07 | 99 | 1032.1 |
| 20260510111645 | 50 | 91 | 0.0 | 0.0 | 0.00 | 0.07 | 0.07 | 99 | 1032.0 |
| 20260510105640 | 50 | 91 | 0.0 | 0.0 | 0.00 | 0.07 | 0.07 | 99 | 1031.9 |
| 20260510104651 | 50 | 91 | 0.0 | 0.0 | 0.00 | 0.07 | 0.07 | 99 | 1031.9 |
| 20260510103621 | 50 | 91 | 0.0 | 0.0 | 0.00 | 0.07 | 0.07 | 99 | 1031.9 |
| 20260510102616 | 51 | 91 | 0.0 | 0.0 | 0.00 | 0.07 | 0.07 | 99 | 1031.9 |
| 20260510101604 | 51 | 91 | 0.0 | 0.0 | 0.00 | 0.07 | 0.07 | 99 | 1031.9 |
| 20260510100612 | 51 | 91 | 0.0 | 0.0 | 0.00 | 0.07 | 0.07 | 99 | 1031.8 |
| 20260510095551 | 51 | 91 | 0.0 | 0.0 | 0.00 | 0.07 | 0.07 | 99 | 1031.8 |
| 20260510093509 | 51 | 91 | 0.0 | 0.0 | 0.00 | 0.06 | 0.06 | 99 | 1031.8 |
| 20260510091449 | 51 | 91 | 0.0 | 0.0 | 0.00 | 0.06 | 0.06 | 99 | 1031.6 |
| 20260510085520 | 51 | 96 | 0.0 | 0.0 | 0.00 | 0.06 | 0.06 | 99 | 1031.4 |
| 20260510084508 | 51 | 95 | 0.0 | 0.0 | 0.00 | 0.06 | 0.06 | 99 | 1031.3 |
| 20260510083458 | 51 | 98 | 0.0 | 3.0 | 0.00 | 0.06 | 0.06 | 99 | 1031.3 |
| 20260510082508 | 51 | 105 | 0.0 | 3.0 | 0.00 | 0.06 | 0.06 | 99 | 1031.2 |
| 20260510080409 | 51 | 97 | 1.0 | 5.0 | 0.00 | 0.06 | 0.06 | 99 | 1031.0 |
| 20260510075354 | 51 | 100 | 1.0 | 4.0 | 0.00 | 0.06 | 0.06 | 99 | 1030.9 |
| 20260510074332 | 52 | 91 | 0.0 | 5.0 | 0.03 | 0.07 | 0.06 | 99 | 1030.8 |
| 20260510073336 | 52 | 85 | 1.0 | 5.0 | 0.07 | 0.07 | 0.06 | 99 | 1030.7 |
| 20260510072351 | 52 | 114 | 0.0 | 4.0 | 0.06 | 0.05 | 0.04 | 99 | 1030.7 |
| 20260510071355 | 52 | 116 | 0.0 | 1.0 | 0.00 | 0.04 | 0.03 | 99 | 1030.7 |
| 20260510070353 | 52 | 95 | 0.0 | 6.0 | 0.00 | 0.03 | 0.03 | 99 | 1030.6 |
| 20260510065334 | 52 | 71 | 1.0 | 6.0 | 0.00 | 0.03 | 0.03 | 99 | 1030.6 |
| 20260510064346 | 52 | 96 | 0.0 | 5.0 | 0.00 | 0.03 | 0.03 | 99 | 1030.6 |
| 20260510063402 | 52 | 96 | 1.0 | 6.0 | 0.00 | 0.03 | 0.03 | 98 | 1030.5 |
| 20260510062349 | 52 | 79 | 0.0 | 5.0 | 0.00 | 0.03 | 0.03 | 99 | 1030.6 |
| 20260510061413 | 52 | 76 | 0.0 | 3.0 | 0.03 | 0.03 | 0.03 | 98 | 1030.5 |
| 20260510060430 | 52 | 83 | 0.0 | 4.0 | 0.03 | 0.03 | 0.03 | 99 | 1030.5 |
| 20260510055414 | 52 | 92 | 1.0 | 6.0 | 0.00 | 0.03 | 0.02 | 98 | 1030.4 |
| 20260510053341 | 52 | 174 | 1.0 | 6.0 | 0.00 | 0.02 | 0.01 | 98 | 1030.3 |
| 20260510051401 | 52 | 75 | 0.0 | 1.0 | 0.00 | 0.02 | 0.01 | 98 | 1030.3 |
| 20260510050400 | 53 | 51 | 0.0 | 7.0 | 0.00 | 0.02 | 0.01 | 98 | 1030.4 |
| 20260510045340 | 53 | 307 | 0.0 | 7.0 | 0.00 | 0.02 | 0.01 | 98 | 1030.4 |
| 20260510044327 | 53 | 225 | 0.0 | 4.0 | 0.00 | 0.01 | 0.00 | 98 | 1030.3 |
| 20260510043323 | 53 | 130 | 0.0 | 0.0 | 0.00 | 0.01 | 0.00 | 98 | 1030.3 |
| 20260510042305 | 53 | 53 | 0.0 | 5.0 | 0.00 | 0.01 | 0.00 | 98 | 1030.3 |
| 20260510041301 | 53 | 98 | 1.0 | 5.0 | 0.00 | 0.01 | 0.00 | 98 | 1030.3 |
| 20260510035314 | 52 | 330 | 2.0 | 7.0 | 0.00 | 0.01 | 0.00 | 98 | 1030.5 |
| 20260510034329 | 53 | 100 | 1.0 | 5.0 | 0.00 | 0.01 | 0.00 | 98 | 1030.4 |
| 20260510033344 | 53 | 47 | 0.0 | 6.0 | 0.00 | 0.01 | 0.00 | 98 | 1030.5 |
| 20260510031349 | 52 | 68 | 1.0 | 8.0 | 0.00 | 0.01 | 0.00 | 98 | 1030.7 |
| 20260510030321 | 52 | 105 | 3.0 | 8.0 | 0.00 | 0.01 | 0.00 | 98 | 1030.6 |
| 20260510025258 | 52 | 83 | 1.0 | 7.0 | 0.00 | 0.01 | 0.00 | 98 | 1030.7 |
| 20260510023259 | 52 | 68 | 2.0 | 7.0 | 0.00 | 0.01 | 0.00 | 98 | 1030.9 |
| 20260510022232 | 52 | 86 | 0.0 | 6.0 | 0.00 | 0.01 | 0.00 | 99 | 1031.1 |
| 20260510021215 | 52 | 10 | 0.0 | 1.0 | 0.00 | 0.01 | 0.00 | 99 | 1031.2 |
| 20260510020215 | 52 | 102 | 1.0 | 6.0 | 0.00 | 0.01 | 0.00 | 99 | 1031.3 |
| 20260510014145 | 52 | 89 | 0.0 | 4.0 | 0.00 | 0.01 | 0.00 | 99 | 1031.5 |
| 20260510013122 | 51 | 88 | 0.0 | 2.0 | 0.00 | 0.01 | 0.00 | 99 | 1031.8 |
| 20260510011046 | 51 | 79 | 0.0 | 2.0 | 0.00 | 0.01 | 0.00 | 99 | 1031.8 |
| 20260510010017 | 51 | 119 | 0.0 | 0.0 | 0.00 | 0.01 | 0.00 | 99 | 1031.7 |
| 20260510005017 | 51 | 100 | 0.0 | 2.0 | 0.00 | 0.01 | 0.00 | 99 | 1031.8 |
| 20260510004000 | 51 | 86 | 0.0 | 1.0 | 0.00 | 0.01 | 0.00 | 99 | 1031.7 |
| 20260510003010 | 51 | 124 | 0.0 | 4.0 | 0.00 | 0.01 | 0.00 | 99 | 1031.7 |
| 20260510002034 | 51 | 86 | 0.0 | 1.0 | 0.00 | 0.01 | 0.00 | 99 | 1031.7 |
| 20260509235946 | 51 | 86 | 0.0 | 0.0 | 0.00 | 0.01 | 0.00 | 99 | 1031.8 |
| 20260509234925 | 51 | 48 | 0.0 | 0.0 | 0.00 | 0.01 | 0.00 | 99 | 1031.8 |
| 20260509233857 | 51 | 41 | 0.0 | 0.0 | 0.00 | 0.01 | 0.00 | 99 | 1031.8 |
| 20260509232827 | 51 | 356 | 0.0 | 0.0 | 0.00 | 0.01 | 0.00 | 99 | 1031.7 |
| 20260509231814 | 50 | 98 | 0.0 | 0.0 | 0.00 | 0.01 | 0.00 | 99 | 1031.8 |
| 20260509230754 | 50 | 98 | 0.0 | 0.0 | 0.00 | 0.01 | 0.00 | 99 | 1031.7 |
| 20260509225800 | 50 | 107 | 0.0 | 0.0 | 0.00 | 0.01 | 0.00 | 99 | 1031.7 |
| 20260509224734 | 50 | 17 | 0.0 | 0.0 | 0.00 | 0.01 | 0.00 | 99 | 1031.7 |
| 20260509222556 | 50 | 17 | 0.0 | 0.0 | 0.00 | 0.01 | 0.00 | 99 | 1031.4 |
| 20260509221539 | 50 | 16 | 0.0 | 0.0 | 0.00 | 0.01 | 0.00 | 99 | 1031.4 |
| 20260509220557 | 49 | 61 | 0.0 | 0.0 | 0.00 | 0.01 | 0.00 | 99 | 1031.2 |
| 20260509215539 | 49 | 74 | 0.0 | 0.0 | 0.00 | 0.01 | 0.00 | 99 | 1031.1 |
| 20260509214521 | 49 | 48 | 0.0 | 0.0 | 0.00 | 0.01 | 0.00 | 99 | 1031.0 |
| 20260509213521 | 49 | 70 | 0.0 | 2.0 | 0.00 | 0.01 | 0.00 | 99 | 1030.8 |
| 20260509212526 | 49 | 95 | 0.0 | 4.0 | 0.00 | 0.01 | 0.00 | 99 | 1030.7 |
| 20260509211508 | 49 | 49 | 1.0 | 4.0 | 0.00 | 0.01 | 0.00 | 99 | 1030.6 |
| 20260509210518 | 49 | 68 | 0.0 | 3.0 | 0.00 | 0.01 | 0.00 | 99 | 1030.6 |
| 20260509205514 | 49 | 105 | 0.0 | 2.0 | 0.00 | 0.02 | 0.00 | 99 | 1030.5 |
| 20260509204459 | 49 | 88 | 0.0 | 1.0 | 0.00 | 0.02 | 0.00 | 99 | 1030.3 |
| 20260509203436 | 49 | 263 | 0.0 | 0.0 | 0.00 | 0.02 | 0.00 | 99 | 1030.3 |
| 20260509202444 | 49 | 263 | 0.0 | 0.0 | 0.00 | 0.02 | 0.00 | 99 | 1030.2 |
| 20260509201456 | 49 | 263 | 0.0 | 0.0 | 0.00 | 0.03 | 0.00 | 99 | 1030.0 |
| 20260509200518 | 49 | 263 | 0.0 | 0.0 | 0.00 | 0.03 | 0.00 | 99 | 1029.9 |
| 20260509195449 | 49 | 263 | 0.0 | 0.0 | 0.00 | 0.03 | 0.00 | 99 | 1029.8 |
| 20260509194450 | 48 | 161 | 0.0 | 0.0 | 0.00 | 0.03 | 0.00 | 99 | 1029.8 |
| 20260509193450 | 48 | 161 | 0.0 | 0.0 | 0.00 | 0.03 | 0.00 | 99 | 1029.6 |
| 20260509192428 | 49 | 161 | 0.0 | 0.0 | 0.00 | 0.03 | 0.00 | 99 | 1029.6 |
| 20260509191418 | 49 | 64 | 0.0 | 0.0 | 0.00 | 0.03 | 0.00 | 99 | 1029.4 |
| 20260509190439 | 49 | 93 | 0.0 | 0.0 | 0.00 | 0.03 | 0.00 | 99 | 1029.3 |
| 20260509185440 | 49 | 47 | 0.0 | 0.0 | 0.00 | 0.04 | 0.00 | 99 | 1029.3 |
| 20260509183344 | 50 | 102 | 1.0 | 4.0 | 0.00 | 0.05 | 0.00 | 99 | 1029.0 |
| 20260509182327 | 50 | 93 | 1.0 | 4.0 | 0.00 | 0.05 | 0.00 | 99 | 1029.0 |
| 20260509181304 | 50 | 85 | 1.0 | 4.0 | 0.00 | 0.06 | 0.00 | 99 | 1029.0 |
| 20260509180324 | 50 | 103 | 1.0 | 5.0 | 0.00 | 0.06 | 0.00 | 99 | 1028.9 |
| 20260509175323 | 50 | 106 | 2.0 | 5.0 | 0.00 | 0.06 | 0.00 | 99 | 1028.9 |